TimeCDT,TemperatureF,Dew PointF,Humidity,Sea Level PressureIn,VisibilityMPH,Wind Direction,Wind SpeedMPH,Gust SpeedMPH,PrecipitationIn,Events,Conditions,WindDirDegrees,DateUTC
12:53 AM,61.0,48.9,64,29.66,10.0,WSW,11.5,20.7,N/A,,Clear,240,2013-05-21 05:53:00
1:53 AM,59.0,50.0,72,29.65,10.0,WSW,10.4,-,N/A,,Clear,240,2013-05-21 06:53:00
2:53 AM,59.0,51.1,75,29.66,10.0,West,10.4,-,N/A,,Mostly Cloudy,260,2013-05-21 07:53:00
3:53 AM,57.9,52.0,81,29.65,10.0,West,10.4,-,N/A,,Mostly Cloudy,260,2013-05-21 08:53:00
4:14 AM,57.2,51.8,82,29.67,10.0,WSW,9.2,-,N/A,,Scattered Clouds,250,2013-05-21 09:14:00
4:53 AM,57.0,52.0,83,29.67,10.0,WSW,10.4,-,N/A,,Clear,250,2013-05-21 09:53:00
5:53 AM,55.9,52.0,87,29.69,10.0,WSW,6.9,-,N/A,,Clear,250,2013-05-21 10:53:00
6:53 AM,57.0,52.0,83,29.72,10.0,WSW,11.5,-,N/A,,Clear,240,2013-05-21 11:53:00
7:53 AM,59.0,51.1,75,29.73,10.0,West,11.5,-,N/A,,Clear,270,2013-05-21 12:53:00
8:53 AM,62.1,50.0,65,29.72,10.0,West,16.1,23.0,N/A,,Clear,280,2013-05-21 13:53:00
9:53 AM,64.0,50.0,60,29.73,10.0,WSW,13.8,-,N/A,,Partly Cloudy,250,2013-05-21 14:53:00
10:53 AM,64.9,50.0,58,29.73,10.0,WSW,15.0,-,N/A,,Clear,250,2013-05-21 15:53:00
11:53 AM,66.0,50.0,56,29.73,10.0,SW,17.3,21.9,N/A,,Mostly Cloudy,230,2013-05-21 16:53:00
12:53 PM,66.9,48.9,52,29.72,10.0,WSW,13.8,24.2,N/A,,Scattered Clouds,250,2013-05-21 17:53:00
1:53 PM,66.9,48.9,52,29.73,10.0,WSW,13.8,25.3,N/A,,Mostly Cloudy,250,2013-05-21 18:53:00
2:53 PM,70.0,48.0,46,29.72,10.0,West,19.6,25.3,N/A,,Mostly Cloudy,270,2013-05-21 19:53:00
3:53 PM,68.0,48.0,49,29.73,10.0,WSW,20.7,26.5,N/A,,Scattered Clouds,250,2013-05-21 20:53:00
4:53 PM,69.1,46.9,45,29.70,10.0,West,18.4,26.5,N/A,,Partly Cloudy,260,2013-05-21 21:53:00
5:53 PM,68.0,46.9,47,29.69,10.0,West,17.3,24.2,N/A,,Partly Cloudy,270,2013-05-21 22:53:00
6:53 PM,66.0,46.0,48,29.68,10.0,West,11.5,-,N/A,,Clear,280,2013-05-21 23:53:00
7:53 PM,64.9,46.9,52,29.70,10.0,WNW,11.5,-,N/A,,Partly Cloudy,300,2013-05-22 00:53:00
8:53 PM,62.1,48.0,60,29.70,10.0,WNW,5.8,-,N/A,,Clear,300,2013-05-22 01:53:00
9:53 PM,60.1,48.0,64,29.70,10.0,WNW,6.9,-,N/A,,Clear,300,2013-05-22 02:53:00
10:53 PM,60.1,48.9,67,29.72,10.0,WNW,5.8,-,N/A,,Overcast,300,2013-05-22 03:53:00
11:53 PM,60.1,50.0,69,29.72,10.0,West,5.8,-,N/A,,Overcast,280,2013-05-22 04:53:00